Theta_e
322 319 320 320 321 321 321 323 324 324 324 324 325 326 326 327 330 329 326 324 323 321 318 315 314 313 312 311 310 310 310 310 309 309 309 308 308 307 306 306 306 305 305 306 306 307 307 307 307 307 307 307 307 307 309 313 317 321 323 326 326 326 326 326 326 326 327 327 328 329 329 328 327 327 326 325 324 324 323 321 320 320 321 321 320 320 320
322 319 322 321 320 320 319 320 321 321 321 321 321 321 322 325 325 323 322 321 319 317 313 311 311 310 309 309 309 309 309 309 308 308 308 307 307 307 306 305 305 305 305 305 306 306 306 306 306 306 306 306 306 306 307 309 313 318 321 324 325 325 325 326 326 326 327 328 327 327 328 328 327 326 326 325 324 323 321 319 319 320 320 320 320 318 318
321 320 321 319 317 318 317 317 319 320 319 319 319 318 319 321 322 321 320 319 316 313 310 309 308 308 308 308 309 309 308 308 308 308 307 306 306 306 305 305 304 304 305 305 305 305 305 305 305 305 305 305 305 305 306 307 310 314 318 320 322 324 325 326 326 327 327 327 327 327 327 327 327 326 325 324 322 321 320 318 318 320 321 320 319 318 318
322 321 320 317 316 318 317 316 317 318 318 318 317 316 316 318 320 320 319 318 315 311 309 307 307 307 307 307 308 308 308 307 308 307 306 306 305 305 304 304 304 304 304 304 304 304 304 304 304 304 304 304 304 304 304 305 307 311 313 314 316 320 323 325 325 326 326 326 326 326 326 326 326 326 324 323 321 319 318 318 319 320 320 320 318 318 317
322 323 323 321 321 323 321 316 315 317 317 316 315 314 314 314 317 318 317 316 313 310 308 307 306 306 306 306 307 308 307 307 307 307 306 305 304 304 303 303 303 303 303 304 304 304 304 303 303 303 303 303 303 303 303 304 305 307 309 310 311 313 318 322 324 325 325 325 325 325 325 325 325 324 322 321 320 319 318 319 319 319 319 318 317 317 317
322 323 322 322 323 324 319 314 314 315 314 313 313 313 312 312 314 315 314 311 309 308 307 306 305 305 305 304 305 306 307 307 307 306 306 304 303 303 302 302 302 303 303 303 302 302 303 303 302 302 302 302 302 302 303 303 304 305 306 307 308 309 311 315 319 323 325 325 325 325 324 324 324 323 321 321 320 320 320 319 318 318 318 316 315 314 314
323 322 321 322 323 320 315 312 313 313 312 311 311 311 310 310 311 312 312 310 308 307 305 305 304 304 304 303 303 304 305 305 306 306 305 304 303 302 302 302 302 302 302 302 301 302 302 302 302 302 302 301 301 301 302 302 303 304 304 305 306 306 306 309 313 317 321 323 324 323 322 323 322 322 321 321 320 320 319 318 317 317 315 313 311 311 310
320 320 320 321 320 316 313 312 312 312 312 311 311 311 310 309 309 311 311 310 307 306 305 304 304 304 304 303 303 303 304 304 304 304 305 304 302 301 301 301 301 302 301 301 301 301 301 301 301 301 301 301 301 301 301 302 302 303 303 304 305 305 305 306 308 310 312 315 318 318 318 320 320 318 318 318 318 318 317 316 315 314 312 310 309 308 309
318 319 319 318 317 315 313 312 311 311 311 312 312 311 310 308 308 309 310 309 308 307 306 305 306 306 304 303 303 303 303 304 303 303 303 303 302 302 302 301 301 301 301 301 301 300 300 300 300 300 301 301 301 301 301 301 301 302 302 303 303 304 305 305 306 307 307 309 311 312 313 314 315 315 314 314 315 316 315 313 312 310 308 307 307 307 308
319 319 318 317 318 317 313 311 310 311 311 311 311 311 310 308 307 307 308 308 307 307 307 307 307 307 305 303 303 303 303 303 303 302 302 301 301 301 301 301 301 301 301 301 300 300 300 300 300 300 300 300 300 300 301 301 301 301 302 302 302 303 303 304 305 306 306 306 307 309 309 310 310 311 312 312 312 314 314 312 310 308 307 305 305 305 306
321 321 318 317 317 315 311 308 308 309 311 311 311 313 311 308 306 306 307 306 306 306 306 306 307 306 305 303 302 302 303 303 302 301 301 300 301 301 301 301 301 301 301 301 301 301 301 301 301 301 301 301 300 300 301 301 301 301 301 301 302 302 302 303 304 305 306 305 306 307 308 308 308 309 309 309 310 311 312 311 310 309 308 306 304 303 303
319 321 317 313 313 311 309 308 308 309 309 310 313 316 313 307 305 304 303 303 303 303 303 303 304 304 303 302 301 301 302 301 300 300 300 300 300 301 301 301 301 301 301 301 301 301 301 301 301 302 302 302 301 301 301 301 301 301 301 300 301 301 302 302 303 304 304 305 305 306 307 307 307 307 307 308 308 309 309 309 309 308 307 306 304 303 303
318 317 314 312 311 309 307 308 309 309 310 312 315 314 310 304 303 302 300 300 300 300 300 301 301 300 300 300 300 300 300 300 300 300 300 300 301 301 300 301 301 301 301 301 301 301 301 301 301 301 302 302 302 302 301 301 302 302 301 300 299 300 300 301 302 302 303 303 304 304 305 306 307 307 307 308 308 307 307 306 307 306 305 304 303 302 301
317 315 313 312 311 308 307 309 309 308 311 313 311 307 304 302 301 300 299 299 298 298 299 299 299 299 299 300 300 300 300 300 300 300 301 301 301 301 301 301 301 300 300 300 300 300 301 301 301 301 301 302 302 302 302 302 302 301 300 300 299 299 299 299 300 301 301 302 303 303 304 304 305 305 306 307 307 307 306 306 305 304 302 302 302 302 301
314 313 310 311 311 308 307 309 309 308 309 309 305 302 302 301 300 300 300 299 299 299 299 299 299 300 300 300 301 300 300 300 300 301 301 301 301 301 301 301 301 300 300 300 300 300 300 300 301 301 301 301 301 302 302 302 302 301 301 301 300 300 300 299 300 300 300 301 302 302 303 303 303 303 304 305 305 306 306 306 305 303 302 302 302 302 301
311 312 309 309 309 308 307 307 308 307 307 305 302 302 301 300 300 300 301 300 300 300 300 301 300 300 301 301 301 301 301 301 301 300 300 300 300 300 301 301 300 300 300 300 299 300 300 300 300 300 300 301 301 301 302 302 302 301 301 301 301 301 301 301 300 300 300 300 301 301 302 302 302 302 302 303 303 304 304 304 305 305 305 304 304 303 301
309 309 309 308 308 307 307 306 305 304 304 303 301 301 301 300 300 300 301 301 301 300 300 301 300 300 300 300 300 300 300 300 300 300 300 300 300 300 300 300 299 299 299 299 298 298 299 299 300 300 300 300 301 300 301 301 302 302 301 301 301 302 302 302 301 301 300 300 300 300 300 300 301 301 301 302 302 302 302 303 303 304 305 305 305 304 301
308 308 308 308 307 307 306 305 305 304 303 302 301 301 301 301 301 301 301 301 300 300 300 300 300 300 300 300 300 300 300 299 299 299 299 299 299 299 299 299 299 299 298 298 298 298 298 299 300 300 300 300 300 300 300 301 301 301 301 301 301 301 301 302 302 301 301 301 301 300 300 299 299 300 300 300 300 300 301 302 302 303 303 304 304 304 302
309 309 308 308 307 306 304 304 304 303 302 302 301 301 301 301 301 301 300 300 300 300 300 300 301 301 301 301 300 300 300 299 299 299 299 299 299 299 299 299 299 299 299 298 298 298 298 298 299 300 300 300 300 300 300 300 300 300 300 301 301 301 301 301 301 302 301 301 301 301 300 298 298 298 299 300 301 301 301 302 302 303 303 302 302 301 300
308 308 308 307 306 305 304 303 303 303 302 302 301 301 301 301 301 300 300 300 300 301 301 301 301 301 301 301 301 301 300 300 299 299 299 299 300 300 299 299 299 299 299 299 298 298 298 298 298 299 299 300 300 300 300 300 300 300 300 300 300 301 301 301 301 301 301 300 300 300 299 297 297 297 297 298 299 300 301 301 302 302 302 301 301 300 299
307 307 306 305 306 305 304 303 303 302 302 302 301 301 301 301 301 301 301 301 301 301 301 300 301 302 301 300 300 301 300 300 300 300 300 300 300 300 300 300 300 300 300 299 299 298 298 298 297 297 298 299 300 300 300 300 300 300 300 299 299 300 300 300 301 301 301 300 299 299 298 298 297 297 296 296 297 297 298 298 298 300 300 300 299 299 299
307 306 305 305 306 305 305 304 303 303 302 302 302 302 302 301 301 302 302 302 301 301 301 300 300 301 300 299 299 299 299 299 300 300 299 300 300 300 300 300 300 299 299 299 299 298 298 297 297 297 297 299 300 300 300 300 300 300 300 300 299 299 299 300 300 300 301 301 300 300 299 298 298 297 297 297 297 296 296 296 297 298 299 298 297 297 298
306 305 305 305 305 305 304 304 304 303 303 302 302 302 302 302 302 301 302 303 302 301 301 301 300 300 299 299 299 299 299 299 300 300 300 299 299 300 300 299 299 298 298 298 298 298 297 297 297 297 298 299 300 300 300 300 300 300 300 299 299 298 299 299 300 300 300 300 300 300 299 298 298 298 297 297 297 297 296 296 296 296 297 296 296 296 296
305 305 305 305 304 304 304 304 304 303 303 303 303 303 302 302 302 301 301 302 302 301 301 301 301 300 300 300 300 299 299 299 299 299 299 299 299 299 298 298 297 297 297 297 297 297 297 297 297 298 298 299 299 299 300 300 300 300 299 299 298 298 298 299 299 299 299 299 299 300 300 299 299 298 298 298 297 297 296 296 296 296 296 296 296 296 296
305 305 305 304 303 303 302 302 302 302 302 303 303 303 302 302 302 302 302 301 302 302 301 301 301 301 300 300 300 299 299 299 299 299 299 299 298 298 297 296 296 296 296 296 296 297 297 297 297 298 298 299 298 299 300 300 300 300 300 300 299 299 299 299 299 299 299 299 299 299 299 299 299 299 299 298 298 297 297 296 296 296 296 295 295 295 296
305 305 304 304 304 304 303 302 301 301 301 301 301 301 302 302 303 303 302 302 302 302 302 302 301 301 300 299 299 299 299 299 299 299 299 298 297 296 296 296 295 295 295 295 296 297 297 297 297 297 298 298 299 299 299 299 300 300 300 300 300 299 299 298 298 298 298 299 298 299 299 299 299 299 299 299 299 298 297 296 296 296 296 295 295 295 296
305 305 305 304 304 303 303 303 302 301 300 300 300 300 301 301 301 301 302 302 302 302 301 301 301 301 300 299 299 299 299 299 299 299 298 297 296 296 295 295 295 295 295 295 296 297 297 297 297 297 297 298 298 299 299 299 299 300 300 300 299 299 298 298 298 298 298 298 297 298 299 299 298 298 298 299 299 299 298 297 297 296 296 295 295 295 296
305 305 304 304 303 303 302 301 300 300 300 300 300 300 300 300 300 300 300 300 300 301 301 300 300 300 300 300 299 300 299 299 298 298 297 296 295 295 295 295 295 295 295 295 296 297 297 297 298 297 297 298 298 298 299 299 299 300 300 300 299 298 298 298 297 297 297 297 297 298 298 299 298 298 297 298 298 299 299 299 298 297 296 295 295 295 295
304 303 302 302 302 302 301 301 300 300 301 300 300 300 300 301 302 302 301 300 300 300 300 300 300 300 300 300 299 299 299 298 298 297 296 295 295 295 295 295 295 295 295 295 296 297 297 297 297 297 297 298 298 298 298 298 299 299 300 300 300 299 299 297 296 296 297 298 298 298 298 298 298 298 297 297 297 298 298 299 299 297 296 295 295 295 295
304 303 303 302 301 301 302 303 303 302 302 301 300 300 300 301 304 304 302 300 300 300 300 300 300 299 299 299 299 298 298 297 297 296 295 295 295 295 295 294 295 295 296 296 296 297 297 297 297 297 297 297 297 298 298 298 299 299 299 300 300 300 298 296 296 296 297 297 297 298 298 298 298 297 297 297 297 297 297 297 297 297 296 295 295 295 295
305 305 306 305 304 303 303 304 304 304 302 300 300 301 302 302 304 305 302 300 299 299 299 300 300 300 299 299 298 298 297 296 296 295 295 295 295 295 295 294 295 295 296 296 295 296 297 298 297 297 297 297 297 297 298 298 298 299 299 300 300 299 298 297 296 296 296 297 297 298 298 298 297 297 297 296 297 297 296 296 296 296 295 295 295 294 295
305 305 306 306 305 304 303 304 304 304 303 302 302 302 302 302 302 303 301 299 299 300 300 300 300 300 300 299 298 297 296 295 295 295 295 295 295 295 295 294 294 295 295 295 294 295 297 298 298 297 297 297 297 297 298 298 298 299 299 299 299 299 299 298 298 296 296 297 297 297 297 297 297 297 296 296 296 296 296 296 296 296 296 295 295 294 295
305 304 303 304 304 304 303 304 304 304 304 302 301 301 300 300 300 300 299 299 300 300 300 300 300 300 299 298 297 296 296 296 296 296 295 295 295 295 295 294 294 295 295 295 294 296 298 298 298 298 297 297 297 297 297 297 298 299 299 299 299 299 299 298 298 298 297 297 297 297 297 297 297 297 296 296 296 296 296 296 296 296 295 295 294 294 295
304 303 302 302 303 303 303 304 304 304 304 302 300 299 300 300 300 300 299 300 300 300 300 300 300 299 299 298 297 297 296 296 296 296 295 295 295 295 295 294 294 295 295 295 296 297 298 298 298 297 297 297 297 297 297 297 298 299 299 299 299 299 299 298 299 298 298 297 297 297 297 297 296 296 296 296 296 295 295 295 295 295 295 295 294 294 294
301 301 301 301 301 301 301 302 302 303 304 303 301 300 300 300 300 300 300 300 300 300 300 300 300 299 299 298 297 297 296 296 296 295 295 295 295 295 295 295 294 294 295 295 297 298 297 297 297 297 296 296 296 296 297 298 298 299 298 298 298 299 299 299 298 298 297 297 297 297 297 296 296 296 296 295 295 295 294 295 295 295 295 295 294 294 294
300 300 300 300 300 300 300 301 300 300 301 301 300 300 300 300 300 300 300 300 300 300 300 300 300 299 299 298 297 296 296 296 295 295 295 295 295 295 295 295 294 294 294 295 297 298 297 295 296 297 296 296 296 297 297 298 298 298 298 299 299 298 298 298 298 297 297 296 297 296 296 296 296 295 295 295 295 295 295 295 295 295 295 294 294 294 294
300 300 300 300 300 300 300 300 300 300 299 300 300 300 300 300 300 300 300 300 300 300 300 300 300 299 298 297 297 297 296 296 296 296 296 296 295 295 295 295 294 294 294 295 297 298 296 294 296 297 296 296 297 297 297 298 298 298 298 298 298 297 297 298 298 297 296 296 296 296 296 296 296 295 295 295 295 295 294 295 295 295 294 294 294 294 294
300 300 300 300 300 300 300 300 300 300 299 299 300 300 300 300 300 300 300 300 300 300 300 300 300 299 298 298 298 298 298 298 297 296 296 296 295 295 295 295 295 295 295 296 297 297 295 295 296 298 297 297 297 297 297 297 298 298 298 298 297 297 297 298 298 297 296 296 296 296 296 296 296 295 295 295 295 295 295 295 295 295 295 294 294 294 293
300 301 300 300 300 300 300 300 300 300 300 300 300 300 300 300 300 300 300 301 301 301 301 300 300 300 299 298 298 299 299 299 298 298 297 296 295 295 295 295 295 296 296 296 296 295 294 294 297 298 297 297 297 297 297 297 297 297 297 297 298 298 298 297 297 297 296 296 296 296 296 296 296 295 295 295 295 295 295 295 295 295 295 294 294 294 294
301 301 300 300 300 300 300 300 300 300 300 300 300 300 300 300 300 300 301 301 301 301 301 301 300 300 300 299 299 299 299 299 299 299 298 297 296 295 296 296 296 296 296 295 294 294 293 295 297 297 297 297 297 297 297 297 297 297 297 297 297 297 298 297 297 297 296 296 296 296 296 296 295 295 295 295 295 295 295 294 294 295 295 294 294 294 294
301 301 300 300 300 300 300 300 300 300 300 300 300 300 300 300 300 300 301 301 301 301 301 300 300 300 300 300 300 299 299 299 299 299 299 297 296 296 296 296 296 295 294 293 292 293 293 294 296 297 297 297 297 296 296 295 295 295 296 297 297 297 297 297 297 297 296 296 296 296 296 295 295 294 294 295 295 295 295 295 295 295 295 294 294 294 294
301 301 300 300 300 300 300 300 300 300 299 300 300 300 300 300 300 301 301 301 301 301 300 300 300 300 300 300 300 299 299 299 299 299 299 298 298 298 298 296 295 293 292 291 291 292 292 293 295 297 297 296 296 295 295 294 293 293 294 295 296 296 295 296 296 296 296 296 296 296 296 295 295 294 294 295 295 295 295 294 295 295 295 294 294 294 293
301 300 300 300 300 300 300 300 299 299 299 300 300 300 300 300 300 300 301 301 300 300 300 300 300 300 300 300 300 300 299 299 299 299 299 299 298 298 298 297 294 293 292 291 291 292 292 294 295 297 297 296 295 294 293 293 293 293 294 294 294 294 294 295 296 296 296 296 296 296 296 296 295 295 295 295 295 294 294 294 295 295 295 295 294 294 294
300 300 300 300 300 299 299 299 299 299 299 299 299 299 299 300 300 300 300 300 300 300 300 300 300 300 300 300 300 299 299 300 299 299 299 298 297 298 298 296 294 293 292 292 291 292 293 294 295 295 295 294 293 293 292 292 293 294 294 294 294 294 295 296 296 296 296 296 296 296 296 296 296 295 295 295 295 294 294 294 295 295 295 294 294 294 293
300 300 300 300 299 299 299 299 299 299 299 299 299 299 299 300 300 300 300 300 300 300 300 300 300 300 300 300 300 300 300 300 299 299 298 297 297 297 297 295 294 294 293 292 291 291 292 293 293 293 293 292 292 292 291 291 292 293 293 294 294 294 294 295 296 296 296 296 295 295 295 296 296 295 295 294 295 294 294 294 294 295 294 294 294 294 293
300 300 300 300 299 300 299 299 299 299 299 298 299 299 299 299 300 300 300 300 300 300 300 300 300 300 300 300 300 299 299 299 299 299 298 297 297 297 296 294 294 294 294 293 291 291 292 292 292 291 290 290 290 290 290 290 291 292 293 293 294 294 294 294 295 295 296 296 296 295 295 295 296 296 295 295 295 294 294 294 294 294 294 294 294 294 293
300 300 300 300 299 299 299 299 299 299 299 299 299 299 299 299 300 300 300 300 300 300 300 300 300 300 300 299 299 299 299 299 299 299 298 298 297 297 296 295 294 295 294 293 292 292 292 292 291 290 289 288 287 288 288 289 291 292 293 293 293 293 293 293 293 294 295 296 295 295 295 295 295 295 295 295 294 294 294 294 294 294 294 294 294 294 293
300 300 299 299 299 299 299 299 299 299 299 299 299 299 300 300 300 300 300 300 300 300 300 300 300 299 299 299 299 299 298 298 298 298 297 298 297 297 296 295 295 294 294 293 292 292 292 292 291 291 290 289 288 288 288 289 290 292 293 293 293 293 293 293 293 294 295 295 295 295 295 295 294 295 295 294 294 294 294 294 293 294 294 294 294 294 293
300 299 299 299 299 299 299 299 299 299 299 299 299 299 299 299 299 300 300 299 299 299 299 299 299 299 299 299 299 298 298 298 298 297 297 297 297 296 295 295 295 295 294 294 293 293 293 293 292 292 291 291 291 291 292 292 292 292 293 293 293 293 293 292 293 294 295 295 295 295 295 295 294 294 294 294 294 294 294 294 294 294 294 294 294 293 293
299 299 299 299 299 299 299 299 298 298 299 299 299 299 299 299 299 299 299 299 298 298 299 299 299 299 299 299 298 298 297 297 297 297 297 297 297 296 296 296 296 295 295 294 293 293 294 293 292 292 292 292 292 292 292 292 292 292 292 292 292 292 292 293 293 294 295 295 295 295 295 295 295 294 294 294 294 294 294 294 294 293 293 293 293 293 293
299 299 299 298 298 298 298 298 298 298 298 298 298 298 298 298 298 298 299 299 299 298 299 299 299 299 298 298 298 298 297 297 297 297 297 297 296 296 297 297 296 295 294 294 293 294 294 293 293 292 292 292 292 292 292 292 291 291 291 292 292 293 293 293 294 294 294 294 295 295 295 295 295 294 294 293 293 293 294 294 294 293 293 293 293 293 293
299 299 299 298 298 298 298 298 298 298 299 298 298 298 298 297 297 297 299 299 299 298 299 299 299 298 298 298 298 297 297 297 297 296 296 296 296 296 296 296 295 295 294 294 294 294 294 294 293 292 292 292 292 292 292 292 292 291 291 292 293 293 292 292 292 292 292 292 293 293 293 294 294 294 294 294 293 293 293 293 293 293 293 293 293 293 293
Wind_Speed
5 2 1 4 8 9 10 10 10 10 10 11 10 7 4 4 5 3 3 7 7 7 9 11 10 11 11 10 9 8 8 9 9 10 11 12 13 14 14 14 14 14 13 15 18 21 21 22 24 24 23 23 25 27 27 24 18 13 8 4 7 10 11 11 12 18 17 13 13 22 28 30 29 27 26 25 24 23 22 21 19 18 19 21 23 24 23
3 2 4 6 11 12 12 12 11 11 12 11 11 9 9 9 8 7 9 11 10 8 8 10 10 10 9 8 8 8 9 10 10 10 11 12 13 14 14 14 13 13 14 16 19 20 21 22 23 23 23 23 23 26 28 27 23 16 10 6 7 11 12 12 13 16 18 16 15 16 19 26 27 26 25 25 25 25 22 21 19 19 22 24 25 25 23
2 7 10 10 13 14 13 13 11 10 10 9 10 10 9 8 7 8 9 9 8 7 8 11 11 9 9 9 10 9 9 10 10 10 11 11 12 13 13 13 12 12 14 16 19 20 20 22 22 22 22 22 22 24 27 29 26 19 13 9 4 8 13 13 12 15 18 18 20 16 15 21 25 25 25 26 26 25 22 22 21 21 23 25 24 23 22
2 6 11 11 12 13 12 11 11 10 8 8 8 9 8 7 4 6 7 5 4 4 7 10 10 10 11 11 10 9 8 9 9 10 10 11 11 12 12 12 12 12 13 15 17 18 19 21 22 22 22 22 23 25 26 27 27 24 19 16 12 5 7 12 11 15 17 16 19 21 21 23 23 24 26 27 25 24 23 23 23 23 25 25 22 21 20
1 3 8 8 6 7 6 5 7 7 6 9 9 10 11 9 6 4 4 4 4 5 7 9 10 11 11 9 9 8 8 8 9 9 10 11 11 11 11 11 12 12 13 15 17 18 19 21 22 23 22 22 22 24 25 25 27 29 28 25 22 17 9 6 11 17 17 13 15 19 21 22 21 23 27 28 25 25 25 25 25 25 25 23 22 20 19
1 1 6 6 4 4 2 2 5 4 8 11 10 10 11 11 7 5 6 7 7 7 8 9 9 9 9 9 9 9 8 7 7 8 9 10 10 10 9 10 11 13 15 16 18 19 20 21 22 23 24 23 23 25 27 27 29 30 32 32 31 27 22 14 1 12 17 16 14 16 19 21 20 22 26 28 27 28 28 26 26 26 24 23 22 20 18
2 2 4 5 3 3 3 3 6 6 10 13 12 11 12 12 9 8 9 9 8 8 9 9 9 9 9 9 11 11 9 8 7 7 8 9 9 9 9 9 11 14 16 17 18 20 21 22 23 23 24 25 26 27 29 30 31 30 31 34 36 34 30 25 18 9 10 17 19 18 20 23 23 23 27 30 30 30 29 28 26 25 24 23 22 21 19
2 2 3 3 3 3 4 5 6 5 5 6 7 9 11 11 9 7 7 8 9 9 9 8 7 8 7 8 10 11 9 8 8 8 7 7 8 8 9 10 12 15 16 16 17 18 20 22 23 23 23 24 27 29 30 32 32 32 33 33 35 36 34 30 28 24 19 19 23 23 24 26 26 24 25 30 32 31 30 28 26 24 23 22 22 21 20
3 3 3 4 4 3 3 4 4 3 3 2 2 4 6 8 8 6 5 7 7 7 7 6 6 5 6 8 8 9 9 8 9 9 10 10 11 11 12 14 16 17 17 18 19 20 20 21 22 23 23 24 27 30 31 32 32 33 34 33 32 33 33 33 34 32 28 25 26 27 27 28 28 25 25 28 30 31 31 28 26 25 23 22 21 20 19
3 4 4 3 3 2 2 3 4 4 3 2 0 3 3 6 8 7 5 5 5 4 3 2 3 2 5 7 5 7 8 6 7 10 12 15 16 15 15 16 17 18 18 19 21 22 22 22 21 21 22 25 29 30 29 30 32 33 33 32 31 31 31 33 37 37 33 28 27 31 32 30 28 27 26 27 28 29 29 28 26 25 23 22 21 20 19
2 4 3 2 1 1 2 3 6 6 5 3 0 2 2 4 7 7 6 4 4 4 3 2 1 3 5 4 3 6 6 5 8 9 11 16 18 18 18 17 17 17 18 19 21 22 22 22 21 21 22 24 27 28 27 29 31 32 32 31 30 30 30 33 37 37 35 31 28 32 34 31 28 28 26 26 28 28 28 27 26 24 22 22 21 19 18
2 4 3 2 2 2 2 4 6 7 5 2 1 1 1 3 5 6 5 5 4 3 3 4 5 5 5 4 2 5 5 8 10 11 12 15 17 18 20 20 18 18 18 19 21 23 23 22 21 20 21 23 24 24 25 28 29 28 28 29 29 30 31 34 36 36 35 32 30 33 35 32 28 27 25 25 26 26 25 25 24 23 21 20 20 19 18
3 4 4 2 2 1 3 5 5 6 3 1 2 1 1 4 5 5 6 6 6 5 4 5 5 3 3 4 3 5 7 9 11 13 14 16 17 18 21 22 21 20 20 21 21 21 23 24 23 22 20 21 22 22 24 27 26 25 26 28 29 30 32 34 34 34 34 33 32 34 34 32 29 28 25 24 24 23 22 21 21 20 19 19 20 21 20
3 3 3 3 2 0 4 5 4 4 2 1 2 2 4 6 6 6 8 8 7 7 7 6 5 4 4 5 5 5 6 7 9 13 16 17 17 18 20 22 22 21 21 23 23 23 23 24 24 24 23 21 20 21 23 23 22 23 25 27 29 31 32 32 32 32 32 32 32 33 32 30 30 29 26 24 22 21 20 19 18 18 18 19 21 23 22
1 3 3 2 2 2 7 6 2 3 2 3 4 5 6 7 7 8 8 7 6 7 7 7 6 6 6 6 5 4 4 6 9 13 15 16 17 17 17 19 21 21 21 22 23 24 25 25 24 25 25 24 23 22 22 21 20 22 23 24 25 27 29 30 31 31 30 29 28 29 28 27 27 28 27 25 23 21 18 16 15 16 17 19 21 23 22
1 3 3 2 1 3 6 5 4 4 5 5 6 6 6 7 6 6 6 6 5 6 6 7 6 6 6 5 5 5 5 7 10 12 14 15 15 16 16 16 18 20 21 21 21 22 24 25 24 24 24 25 25 25 24 22 20 20 23 24 23 23 24 25 26 27 27 27 26 25 24 23 23 24 24 25 24 22 19 16 14 13 14 17 19 20 20
3 4 3 2 2 3 7 7 7 8 9 8 7 7 7 6 5 4 5 6 6 6 7 7 7 6 5 5 5 5 5 6 8 10 11 12 14 16 17 16 17 18 18 18 18 20 21 22 22 23 23 23 24 24 24 24 21 19 21 23 23 21 20 20 21 22 22 23 22 21 20 20 21 20 19 19 20 18 16 16 16 14 12 12 14 16 18
7 6 4 5 6 8 8 8 7 8 8 8 8 8 7 5 5 5 5 6 6 6 6 6 5 5 4 5 4 3 4 5 7 8 9 10 11 12 13 13 13 13 13 13 14 16 18 19 19 20 21 21 21 20 19 21 21 18 17 19 20 20 19 16 16 18 19 19 19 18 18 18 18 17 15 15 15 13 11 12 14 15 15 14 14 16 17
4 4 5 6 9 10 9 9 9 9 9 8 7 7 6 6 6 6 6 7 6 5 5 5 5 4 4 4 3 2 3 4 4 5 5 6 7 8 8 8 7 6 6 8 10 12 15 17 17 17 17 18 18 16 16 19 20 17 15 16 16 18 19 16 13 13 15 16 15 15 16 17 15 13 12 10 10 10 10 10 12 13 15 17 18 19 17
4 5 7 8 9 10 10 9 7 7 9 10 9 8 8 9 9 9 10 9 6 5 5 5 5 4 4 4 4 3 3 4 3 3 2 2 4 4 3 2 3 3 2 3 5 7 10 14 16 15 14 14 14 14 15 19 21 16 14 14 15 15 17 17 14 12 12 14 14 14 15 16 16 14 12 10 10 10 10 11 12 13 15 17 18 17 15
6 6 8 9 9 9 9 9 8 7 8 9 10 10 10 9 9 9 10 9 9 8 8 7 6 5 5 6 6 5 6 7 7 6 5 4 4 4 3 2 0 1 2 2 2 4 7 11 14 15 13 11 12 13 12 15 19 18 15 14 15 15 15 15 13 11 9 10 12 14 15 15 15 15 14 13 13 13 13 12 12 11 12 15 15 13 12
5 5 7 7 6 6 7 8 10 9 9 9 10 9 8 8 8 7 7 8 10 11 12 12 9 6 6 8 7 6 6 8 8 9 9 8 7 7 6 4 2 3 6 6 3 5 9 13 14 16 15 11 11 13 12 11 15 18 16 14 15 15 15 14 12 9 8 8 7 9 13 15 15 15 15 15 15 15 16 15 13 12 12 13 13 11 10
6 7 7 6 5 6 8 10 11 10 10 10 10 10 9 8 9 9 8 7 7 8 12 16 13 9 9 11 11 9 9 10 10 9 9 8 7 7 4 2 7 10 14 14 10 9 12 15 14 14 14 10 9 12 13 11 12 15 16 15 14 12 13 15 13 9 8 8 6 7 9 13 15 16 15 15 15 15 16 15 15 14 14 14 13 13 12
8 8 8 6 5 6 7 9 9 9 10 10 9 9 10 10 13 14 12 10 9 8 10 15 16 14 13 14 13 9 7 8 7 5 5 2 4 6 8 13 17 17 17 17 14 13 13 14 12 10 9 8 7 9 11 11 11 12 13 14 14 12 13 16 15 11 11 13 12 8 8 10 12 14 15 16 15 14 15 15 16 16 17 16 16 15 14
7 7 7 7 7 7 7 8 8 9 11 11 8 9 12 13 15 16 14 12 12 10 8 10 14 14 11 8 6 5 4 2 2 3 1 4 11 15 16 18 19 19 17 17 16 17 16 15 12 7 5 7 7 8 9 9 10 10 10 11 11 12 15 18 17 15 13 14 16 15 10 7 8 8 10 13 15 15 14 14 16 19 20 19 18 17 17
8 7 7 7 7 6 6 7 7 8 11 11 8 10 13 13 14 15 15 15 15 12 9 9 11 10 8 8 6 4 4 1 3 3 7 12 16 18 17 18 18 17 17 18 17 17 18 17 16 12 4 6 8 7 6 6 7 8 9 10 10 11 15 17 16 14 13 12 12 13 12 9 5 3 3 6 11 14 14 14 15 17 19 21 20 18 18
7 6 7 7 6 5 6 6 6 8 12 12 10 10 13 14 13 14 15 15 15 13 10 9 11 11 9 5 2 4 4 2 2 5 13 17 18 16 16 16 16 15 15 17 16 16 17 17 18 18 13 6 6 5 5 5 5 5 8 9 9 9 11 13 13 12 12 10 8 8 9 12 14 13 9 4 7 10 12 14 15 15 16 18 19 17 16
5 5 6 6 5 6 7 8 9 10 11 11 10 10 12 14 12 10 10 11 11 11 11 10 10 11 10 4 1 4 5 1 8 15 18 16 15 14 14 14 14 14 14 14 13 14 16 17 18 20 19 12 5 3 4 5 6 5 6 8 8 8 9 10 10 10 9 9 8 8 9 12 13 14 15 12 7 9 10 11 12 14 15 15 15 15 14
6 6 6 7 8 9 9 9 9 8 6 7 8 8 8 8 6 6 6 5 4 7 9 9 8 10 9 5 5 6 7 10 15 17 14 13 13 12 12 13 13 14 13 12 12 11 12 15 17 17 18 18 13 6 2 2 4 5 4 5 6 7 8 8 7 8 8 8 8 8 8 10 10 12 16 17 14 15 14 11 10 12 14 14 13 13 13
7 7 7 7 8 10 9 7 5 5 4 5 5 6 7 6 6 5 5 7 8 8 6 5 6 8 8 9 13 15 16 15 14 12 11 11 11 10 11 12 13 13 12 12 13 11 9 10 12 12 14 17 15 10 3 1 3 4 4 4 4 6 7 6 7 8 6 5 6 7 6 5 7 11 15 17 16 16 17 15 14 15 14 12 13 14 14
7 8 8 7 7 8 7 6 5 4 4 5 5 6 6 6 6 5 6 8 10 10 10 9 7 5 7 13 16 15 13 11 10 10 9 8 8 9 10 10 11 12 11 12 14 13 10 8 7 9 11 14 14 11 6 1 2 3 4 3 2 4 4 4 7 8 5 5 7 9 7 6 7 10 14 17 17 15 14 15 16 16 14 13 14 14 12
7 7 7 6 6 7 6 4 4 5 6 6 5 5 6 7 7 6 7 9 11 10 8 8 9 8 9 13 14 11 10 10 8 7 6 6 6 8 9 9 11 11 12 14 15 14 10 9 9 9 10 12 12 10 7 5 1 3 5 3 2 2 4 5 5 5 4 3 4 6 7 8 9 9 11 14 15 15 13 13 12 12 12 14 15 13 11
6 6 5 3 4 6 5 4 4 5 6 7 5 4 6 11 12 11 10 10 11 11 9 9 11 10 10 11 10 8 8 8 6 5 4 4 5 6 8 9 11 12 13 15 15 11 7 8 10 9 8 12 13 9 8 9 4 5 6 3 2 1 4 5 5 7 7 3 3 5 8 9 9 8 8 8 9 10 12 11 10 10 12 14 13 11 10
7 6 7 6 6 6 6 5 4 4 5 6 5 3 8 15 15 12 10 8 5 7 6 8 11 9 8 7 6 5 4 4 4 3 0 3 4 5 7 9 10 12 14 14 10 6 6 9 11 10 10 11 11 8 9 9 3 6 4 1 2 2 5 5 8 11 7 1 5 7 9 10 9 8 9 7 6 7 9 9 8 9 12 13 13 12 11
12 10 9 8 8 8 8 6 5 5 5 5 5 4 7 13 14 10 8 7 3 4 3 6 8 5 3 2 1 1 1 2 2 2 3 4 5 6 7 8 8 11 15 12 5 4 7 10 12 13 12 9 6 7 8 5 4 4 1 1 1 2 6 7 11 12 3 8 9 8 9 11 9 9 9 8 7 7 8 7 7 9 11 13 13 12 11
12 10 10 10 12 12 10 8 8 9 7 4 4 4 7 10 13 11 9 7 5 6 4 4 5 2 1 2 1 1 2 3 4 5 7 7 6 6 7 9 9 11 14 9 1 2 8 11 11 13 11 8 7 8 7 4 3 2 2 1 1 2 5 8 12 9 3 11 10 9 10 10 9 9 9 8 7 7 6 7 8 9 12 13 12 12 11
13 12 12 12 12 10 8 7 9 10 8 5 4 6 7 10 12 10 8 5 5 6 6 2 2 3 3 3 2 3 4 5 6 8 9 8 7 7 10 10 9 10 12 8 1 2 9 11 9 9 8 8 9 8 5 4 3 4 4 4 3 2 5 9 12 4 9 12 9 10 12 10 8 8 8 6 5 4 4 4 5 7 9 10 9 8 9
12 12 12 11 7 5 5 4 4 2 1 2 5 7 7 9 9 8 6 5 5 5 7 7 3 4 5 5 5 5 5 6 8 9 10 9 8 9 11 12 11 12 12 5 1 3 9 9 6 6 7 7 6 4 3 2 2 2 4 5 3 0 3 9 11 2 9 13 11 11 12 9 8 8 7 5 5 3 2 3 3 4 6 6 5 6 6
8 9 11 8 3 2 3 3 3 3 3 5 7 8 9 9 10 9 7 6 5 5 7 8 4 3 7 8 8 8 7 7 7 9 11 10 9 9 11 13 14 12 7 1 1 5 7 5 3 5 7 7 4 3 3 2 1 1 2 4 2 1 3 8 10 7 1 10 13 12 10 9 9 9 8 6 5 3 2 2 2 5 7 6 6 7 7
8 9 10 7 3 4 5 4 4 4 6 7 7 8 8 8 8 7 6 5 5 6 6 7 6 3 3 5 6 5 4 4 6 8 10 9 7 9 12 11 6 1 3 3 2 5 5 4 1 2 4 6 5 4 4 4 1 2 1 3 2 1 3 5 6 9 5 6 15 14 11 11 10 8 7 7 6 4 3 1 2 3 6 8 8 9 7
6 8 9 7 4 3 3 4 3 5 5 4 4 5 6 6 5 5 4 4 6 7 7 5 5 5 6 6 6 5 5 6 7 6 6 5 5 8 8 3 5 6 4 4 3 4 6 5 2 2 2 3 4 4 5 5 3 1 3 3 1 2 5 6 5 6 7 1 12 15 11 9 9 8 8 8 7 6 5 2 1 2 6 9 10 8 6
5 7 7 5 3 3 3 4 6 6 5 4 6 8 8 7 5 4 3 4 6 8 7 6 6 6 6 7 8 8 8 7 4 2 3 5 4 6 7 2 5 5 5 6 5 5 9 8 3 4 3 2 3 4 4 4 4 3 3 4 4 7 10 9 6 4 6 3 6 11 10 8 9 10 9 8 8 7 5 2 1 2 5 8 9 7 5
9 9 6 4 5 6 7 8 7 6 5 5 7 7 5 3 1 2 3 4 5 6 6 7 7 7 6 6 7 8 7 3 1 2 3 4 4 6 9 7 4 4 5 6 4 5 7 5 1 4 4 2 2 2 2 3 3 3 3 6 10 12 9 5 7 6 4 3 2 9 11 9 8 10 10 8 8 8 6 3 3 2 4 6 8 7 5
8 4 2 4 7 9 7 5 6 5 5 5 6 6 5 4 3 2 2 2 4 5 5 6 7 7 6 6 7 7 4 0 3 3 2 2 4 6 7 6 6 5 5 4 3 3 5 5 2 3 2 2 2 2 3 3 2 2 4 8 12 13 7 5 6 4 2 1 1 4 10 12 10 9 10 10 9 8 7 5 3 3 4 6 7 6 4
5 3 3 5 6 4 3 5 4 6 6 4 4 6 7 5 2 1 2 3 5 6 6 6 6 6 6 7 7 5 0 2 1 1 1 2 3 4 3 7 6 5 4 3 1 1 4 5 2 2 3 4 3 4 4 4 3 4 5 6 9 13 10 5 6 5 3 1 3 3 5 12 12 9 9 11 10 9 8 7 5 3 3 6 7 5 3
2 2 3 3 3 5 6 2 5 7 6 5 7 9 10 5 2 4 3 3 4 6 7 7 6 6 6 6 4 0 3 2 3 4 3 3 2 2 4 6 5 3 3 2 1 0 2 4 5 5 6 6 6 6 6 4 3 5 6 7 9 12 10 5 4 5 6 5 0 3 0 8 12 11 10 11 11 9 8 8 6 4 4 5 6 6 5
4 2 1 1 1 2 2 4 5 6 6 5 6 8 7 2 6 5 3 3 4 6 7 6 5 5 4 3 4 4 4 3 4 5 1 2 2 3 6 8 5 1 1 0 1 1 1 3 5 6 7 7 6 6 6 5 4 4 6 7 9 8 7 6 5 3 6 8 5 1 0 2 8 12 12 11 10 10 10 8 6 6 6 7 7 7 7
4 2 1 1 3 4 4 4 6 5 2 7 10 11 9 7 5 4 4 4 4 5 5 4 3 3 4 5 6 5 2 2 4 4 3 2 4 5 9 10 5 0 2 3 3 3 2 2 4 6 7 7 5 3 1 2 3 3 4 6 6 5 5 7 7 2 4 6 4 4 3 2 3 8 11 11 10 11 11 8 6 5 6 7 7 7 8
3 2 1 2 3 5 6 4 3 5 9 11 11 9 8 6 4 4 5 5 6 6 5 2 3 5 5 4 3 3 2 2 3 4 4 3 4 2 7 8 4 3 4 4 3 4 4 3 1 5 6 5 5 5 3 1 1 2 4 4 4 5 6 7 6 2 2 2 1 3 4 4 3 5 8 10 11 11 11 9 7 7 6 6 5 5 6
2 1 2 3 4 5 5 2 3 7 8 8 6 5 5 6 5 3 4 6 8 8 5 5 6 6 4 2 2 3 2 2 3 5 4 1 3 4 8 7 6 6 5 4 3 4 5 5 3 1 3 3 5 4 3 3 3 4 4 3 4 5 5 5 4 4 2 2 2 3 3 4 5 7 7 7 10 10 10 10 8 7 6 6 5 5 6
1 2 2 3 7 7 4 3 5 6 5 4 3 4 6 9 9 5 3 3 6 7 7 7 5 3 2 2 4 3 1 2 3 3 2 2 4 3 6 8 6 5 4 4 4 4 6 7 6 2 2 3 3 2 2 3 4 4 2 1 3 4 3 2 3 4 3 3 3 3 3 4 5 6 4 3 6 7 8 9 8 7 7 7 6 6 6
1 2 1 3 6 7 6 3 2 2 1 0 1 1 3 7 8 6 3 2 2 4 4 3 2 2 2 2 2 3 3 2 2 2 1 2 3 1 1 2 3 5 7 6 4 5 5 6 6 3 3 4 3 2 1 2 4 3 1 1 1 2 2 2 3 4 5 5 6 6 5 4 5 4 3 2 2 4 5 5 5 6 7 7 6 6 6
Wind_Direction
311 287 200 122 93 62 55 63 59 51 45 49 59 51 34 69 99 126 94 70 74 72 60 56 52 54 57 53 43 35 29 29 24 22 22 22 24 25 24 23 21 20 20 18 16 15 13 13 12 9 7 5 5 8 10 9 5 359 349 302 242 234 235 245 221 190 198 233 209 172 164 162 161 159 154 151 150 148 145 143 140 136 137 139 135 132 135
296 22 50 72 86 75 55 47 50 59 56 50 55 43 29 50 80 97 95 86 78 70 64 59 53 51 53 52 47 40 35 33 30 29 30 25 22 24 23 21 21 21 22 20 17 16 15 14 15 12 9 9 6 8 15 16 12 3 349 314 254 245 249 256 242 218 209 205 192 179 166 161 162 160 155 150 147 146 144 142 139 133 132 134 134 133 131
20 81 85 81 85 83 63 38 28 48 60 50 48 45 29 36 70 87 89 84 75 68 68 64 56 49 49 46 45 44 38 35 34 35 37 33 25 23 22 21 21 22 24 22 18 18 17 15 15 13 10 10 9 10 17 22 24 23 15 1 314 250 251 258 243 221 213 195 180 181 173 161 159 158 154 149 144 143 143 141 139 137 135 134 133 133 130
36 80 99 100 92 85 69 39 13 21 57 60 50 52 40 21 49 90 84 71 74 80 77 71 60 51 48 40 35 41 40 37 38 39 39 37 33 29 23 21 21 21 23 22 19 18 19 18 17 15 13 12 12 14 17 21 29 36 36 28 18 352 271 262 233 197 196 192 175 171 170 162 158 156 153 148 145 144 141 140 139 137 136 135 133 132 132
48 70 104 113 97 76 64 30 355 3 64 78 61 53 43 23 20 77 82 72 87 92 84 77 66 53 45 34 26 31 37 40 41 41 41 40 37 33 29 26 25 24 24 23 21 21 23 23 21 19 19 18 18 20 22 25 33 39 40 38 32 28 14 290 230 197 191 188 167 161 165 164 159 155 151 148 146 142 138 138 138 135 135 135 133 131 132
234 176 112 107 75 70 82 358 346 22 83 84 70 56 42 30 32 70 89 88 87 85 83 83 78 64 50 37 26 21 25 33 37 38 41 41 39 34 32 33 30 28 29 28 28 27 26 26 26 26 27 28 28 31 32 33 38 40 41 41 37 32 29 24 342 198 193 185 169 158 158 158 154 148 143 141 138 136 136 137 135 133 133 133 130 129 130
176 177 110 89 65 108 134 47 25 63 93 91 83 68 48 35 39 63 84 92 93 92 94 96 94 84 67 47 33 22 19 25 28 32 37 39 42 38 31 31 32 31 33 33 31 30 28 28 28 28 29 33 36 37 38 38 39 40 42 43 42 36 31 35 47 75 142 154 153 145 138 138 137 132 129 129 129 129 130 131 130 130 131 130 128 126 127
127 77 52 81 111 124 107 62 38 48 75 79 76 64 44 31 32 48 73 92 103 112 117 121 118 106 84 55 36 18 14 25 26 23 24 28 37 43 37 34 33 32 32 33 32 32 32 31 31 31 32 37 41 41 41 42 41 41 42 42 43 42 36 36 48 57 70 101 118 119 118 120 118 112 113 119 123 124 123 121 122 123 124 124 124 122 122
98 84 64 101 130 123 59 39 27 30 31 16 55 72 48 28 26 35 62 81 91 112 128 141 152 132 80 55 33 7 5 27 35 28 27 25 26 34 40 42 41 38 36 37 39 41 40 38 36 35 37 41 45 45 43 43 43 43 43 40 41 45 42 40 47 52 53 67 87 95 97 102 103 100 101 106 114 120 120 116 115 116 116 115 116 116 117
86 106 111 119 158 171 70 16 351 0 10 345 78 111 72 23 19 31 54 68 73 89 106 151 196 165 55 44 21 346 347 13 33 34 33 33 31 30 36 44 44 41 39 42 44 45 45 44 41 39 40 45 48 47 45 45 45 44 44 40 38 43 46 48 52 53 49 51 68 80 80 80 86 93 96 97 103 112 115 112 111 112 113 112 110 109 109
82 102 112 104 135 128 55 344 325 326 319 306 85 122 91 25 16 27 44 50 53 68 61 40 112 121 87 64 8 327 333 12 36 39 37 37 35 31 32 39 42 39 40 42 42 41 40 40 41 41 43 47 50 50 49 49 49 47 45 43 42 43 46 52 57 60 55 48 53 70 75 72 74 82 87 92 98 104 107 109 110 111 112 109 104 101 101
82 105 103 68 76 73 345 313 308 307 301 297 122 154 125 47 27 28 43 37 24 44 67 63 71 86 99 102 6 332 360 37 42 43 42 39 36 32 31 35 38 37 37 39 39 38 35 35 37 40 44 47 50 52 52 53 53 52 50 49 49 49 51 55 58 61 60 53 50 61 70 70 70 74 78 82 88 93 98 103 105 106 106 103 99 95 95
57 86 103 95 107 146 304 303 304 306 297 177 136 185 94 67 51 46 60 54 37 44 65 73 78 86 103 103 64 19 31 40 35 35 39 39 38 36 34 35 36 34 33 33 35 36 34 34 36 36 40 46 49 51 54 54 54 56 55 53 52 53 54 56 58 58 58 55 53 58 64 67 67 69 71 74 79 84 88 94 97 99 100 100 97 93 90
35 64 100 112 117 11 308 300 305 329 334 150 123 82 81 81 75 73 72 68 62 63 69 76 92 115 115 99 83 56 46 41 33 31 33 33 32 32 33 35 36 35 33 32 32 31 30 32 33 34 37 41 45 49 52 53 55 56 56 53 52 53 53 53 55 56 55 55 55 57 61 63 64 64 66 69 74 79 82 87 92 97 101 104 101 94 88
42 73 74 82 107 340 325 319 330 9 33 126 116 91 87 88 90 90 82 72 73 79 84 89 97 104 102 92 82 69 51 46 45 41 37 34 31 28 28 29 30 31 31 29 28 28 29 29 30 34 37 37 38 42 45 48 54 58 58 57 55 54 54 53 53 54 55 56 57 58 59 60 60 60 61 65 70 74 77 82 92 103 107 107 103 97 91
17 77 69 63 114 340 356 25 70 49 56 102 111 102 99 96 96 96 87 79 78 83 91 95 90 89 90 82 73 65 50 45 49 49 47 44 38 34 34 35 34 33 30 27 25 25 27 29 30 33 36 36 34 34 35 40 50 58 58 58 58 58 58 58 57 55 55 56 58 58 59 60 59 56 56 61 66 71 72 73 86 107 114 111 108 104 99
58 78 100 128 126 65 48 61 77 73 73 84 93 100 106 107 102 98 95 92 82 75 84 89 84 80 81 78 74 68 58 51 50 51 53 52 46 41 42 43 42 39 34 28 25 25 24 27 32 34 34 34 33 30 32 39 48 54 53 51 53 55 59 64 66 64 62 61 60 58 55 57 60 58 55 55 59 67 71 67 70 86 98 106 116 120 113
89 78 91 112 98 85 78 74 76 80 84 88 94 99 102 103 102 98 97 100 95 89 90 90 90 95 93 89 88 84 80 70 60 61 65 62 56 49 46 45 45 45 42 34 30 30 28 27 31 34 34 35 35 31 31 36 40 45 49 50 49 48 51 61 69 70 71 71 69 64 59 57 59 61 61 60 60 67 79 75 70 75 76 78 95 113 116
117 86 105 116 105 102 102 95 89 88 87 87 90 93 94 96 97 94 96 100 102 108 110 105 108 115 115 117 131 140 123 105 87 83 85 75 70 65 56 54 51 46 48 44 37 37 36 31 30 31 35 39 38 33 29 27 27 33 45 52 54 50 47 53 65 70 75 79 80 78 73 71 73 76 78 83 84 83 88 90 88 87 83 80 88 100 106
101 117 136 131 117 114 110 102 100 101 100 101 101 102 107 109 110 117 125 130 133 129 126 128 129 136 155 168 171 180 180 171 165 162 168 150 127 117 105 87 62 33 41 54 46 47 47 38 30 27 33 41 38 31 26 22 25 38 54 57 59 57 51 54 65 73 80 85 87 89 87 82 83 87 93 103 109 100 88 86 89 93 93 90 92 99 101
107 124 134 127 116 112 107 108 117 121 120 122 122 123 127 130 134 142 148 152 156 152 153 159 151 151 187 200 193 190 190 190 199 209 212 209 195 178 176 187 161 14 331 321 12 45 43 34 25 15 16 30 36 33 27 20 26 42 55 52 49 48 46 50 60 71 86 96 94 93 95 92 86 84 87 94 100 96 87 81 82 88 91 89 89 95 96
114 118 125 124 118 116 121 131 138 140 141 138 134 135 139 142 150 159 158 160 165 166 168 173 171 173 200 208 206 210 209 199 204 215 215 213 216 215 212 223 260 340 345 345 24 59 33 21 13 5 8 30 47 41 37 31 32 39 44 41 35 31 29 31 36 52 77 100 110 103 98 97 96 94 90 88 90 93 91 88 87 85 81 77 74 76 84
108 113 116 115 113 123 141 149 149 151 153 148 144 148 153 158 167 166 158 163 176 180 180 184 187 187 191 199 207 220 226 216 211 223 231 220 211 214 220 21 32 27 19 21 39 52 31 15 7 8 24 48 58 45 43 43 36 34 34 32 28 24 23 24 24 37 62 76 101 129 122 109 103 104 102 94 88 88 90 90 90 87 83 80 77 72 75
107 106 105 102 95 102 126 141 144 149 149 146 148 154 155 163 171 170 169 174 179 185 190 192 194 198 203 207 208 204 207 212 213 240 262 272 71 77 67 50 41 34 26 21 16 10 5 360 356 15 53 67 50 43 48 42 33 32 29 24 26 32 30 25 27 44 60 58 61 83 127 133 117 107 108 107 101 96 95 92 89 87 83 82 83 81 79
100 99 97 94 91 89 99 109 110 114 122 125 137 155 162 171 174 168 165 169 174 183 191 186 189 197 195 181 165 133 109 87 17 13 37 73 60 58 58 50 40 31 21 10 3 360 359 352 343 354 83 94 65 59 64 46 32 32 20 8 17 32 30 26 34 53 62 56 53 58 74 123 145 136 122 118 115 113 109 100 91 87 83 80 82 86 85
97 101 98 98 102 104 101 96 93 107 121 125 131 143 151 162 169 164 161 165 171 180 183 168 165 162 139 121 119 114 113 123 321 23 88 86 71 62 56 46 38 29 13 4 6 11 9 2 353 352 27 110 100 82 78 65 47 36 15 1 5 20 27 32 43 52 51 44 48 57 57 53 60 93 129 142 136 127 121 114 100 90 85 83 84 84 80
119 123 118 109 105 99 100 115 139 145 141 141 143 138 133 136 145 153 159 164 169 172 169 158 149 141 129 120 142 166 172 231 302 81 85 77 68 62 53 41 35 26 9 4 9 12 9 8 7 8 17 67 118 113 89 80 76 53 25 17 20 25 30 35 41 43 41 39 49 66 58 41 36 39 47 91 150 143 131 123 113 100 93 86 80 75 71
117 119 115 111 117 125 127 130 131 124 122 133 148 150 142 138 138 136 139 150 162 162 153 144 142 143 144 142 181 204 215 237 73 83 81 71 62 55 46 39 32 19 7 4 6 8 10 11 9 8 10 14 32 105 108 88 83 75 39 30 38 37 25 23 25 29 38 51 63 70 60 45 39 39 40 51 99 134 136 133 124 113 104 90 72 63 63
96 93 92 99 116 121 108 97 100 110 130 148 145 132 124 122 118 113 110 114 135 146 145 142 139 142 145 122 67 76 92 90 89 87 76 64 60 50 36 30 23 15 11 9 4 4 12 9 2 359 357 355 359 22 96 119 102 93 59 30 29 19 11 12 20 28 42 63 74 70 56 44 40 42 44 53 80 103 107 117 133 125 109 89 65 56 56
108 104 103 111 119 116 108 111 138 163 165 145 115 94 89 90 94 95 72 48 48 55 57 75 110 126 122 98 84 83 85 88 91 85 67 54 49 36 21 16 15 11 8 2 352 346 354 3 4 2 351 342 345 359 15 176 148 112 91 62 24 12 14 22 24 26 40 64 64 60 64 57 50 55 60 66 77 83 81 89 109 118 110 90 67 58 62
122 132 143 152 147 135 138 162 175 151 113 99 91 83 82 78 76 80 66 51 48 37 21 26 55 85 100 102 101 95 89 86 86 77 59 43 32 19 10 10 11 2 351 345 341 335 337 350 357 358 350 340 337 346 357 327 179 132 112 99 16 7 13 13 15 24 45 71 62 59 74 93 82 70 71 77 81 77 71 77 93 100 94 79 67 64 70
124 141 154 162 153 138 136 145 138 119 102 89 83 91 103 95 81 76 66 46 33 19 13 33 52 63 85 103 106 98 86 85 85 71 50 31 17 6 359 2 4 354 342 340 339 335 344 2 359 349 350 349 342 342 352 349 302 158 137 117 41 352 330 330 350 9 21 46 60 61 77 94 94 82 75 79 85 84 74 73 84 88 77 66 64 67 72
144 150 136 110 99 103 95 80 90 112 119 110 102 113 124 111 96 82 70 51 25 9 20 60 79 84 90 98 100 91 82 83 84 78 54 14 356 352 350 353 355 349 341 340 342 343 355 8 1 351 347 346 341 338 348 350 339 174 158 108 48 265 274 304 332 335 331 343 75 90 96 103 103 98 94 91 92 92 85 78 83 91 83 72 72 75 74
113 119 115 107 100 101 98 83 69 84 113 119 115 110 114 113 105 91 82 80 39 358 22 87 103 97 86 86 79 62 66 91 106 112 27 320 331 340 340 340 342 343 341 342 351 8 6 353 351 349 340 334 331 332 344 356 41 156 163 42 25 256 264 292 325 329 324 135 128 117 116 116 110 105 110 109 101 102 100 87 81 93 95 87 85 86 79
103 108 110 109 98 86 84 81 72 69 81 95 90 73 94 112 118 111 103 105 78 356 29 120 125 103 74 95 98 44 102 149 173 233 268 296 308 312 322 328 329 334 338 342 360 29 8 358 0 0 352 341 343 355 360 25 109 129 92 64 128 245 267 285 314 324 325 142 133 116 115 115 103 94 100 104 102 105 107 92 79 92 104 101 95 93 88
97 101 95 90 83 72 60 54 57 56 52 67 91 75 77 98 107 100 86 74 37 8 28 121 150 158 142 150 172 255 237 235 256 263 269 286 295 295 307 316 314 319 329 334 347 33 5 6 17 23 21 22 27 29 42 84 105 47 8 68 157 248 254 284 315 327 138 140 126 113 119 117 101 90 89 90 95 102 105 97 91 100 112 111 99 93 89
79 81 78 76 74 68 56 47 50 49 36 28 48 64 77 94 99 92 79 63 31 7 1 352 216 204 174 166 203 259 262 260 268 273 275 281 287 290 298 302 300 308 318 316 238 33 2 6 27 43 37 23 18 28 59 86 55 22 21 15 354 281 259 299 323 337 148 144 126 122 130 126 110 105 101 90 89 97 94 89 94 108 116 111 96 85 82
82 83 83 77 65 60 61 49 39 53 69 33 35 48 70 88 87 77 69 63 45 3 335 321 286 199 180 192 220 248 268 273 274 275 275 275 279 286 293 296 297 302 306 297 195 353 350 2 36 46 27 12 8 15 32 54 54 36 23 19 26 129 280 313 326 338 154 153 142 135 139 138 130 129 126 110 100 106 90 63 85 136 136 117 98 92 87
119 117 112 105 76 37 67 48 18 37 68 56 47 55 68 74 69 59 48 37 23 343 320 322 319 196 195 216 238 251 261 270 275 275 273 274 276 281 290 302 309 307 299 258 55 346 348 11 42 21 15 21 23 357 337 331 215 154 26 20 37 52 312 317 326 337 141 158 154 148 148 150 144 138 134 124 114 128 139 90 106 155 157 139 128 127 117
132 128 122 115 80 43 38 14 4 41 55 47 45 55 61 61 56 48 33 10 345 321 314 326 338 323 255 251 259 266 271 277 282 281 276 273 271 279 294 312 332 32 125 104 23 354 16 48 42 324 355 20 26 17 2 354 294 193 327 355 359 299 278 287 311 334 341 164 162 158 153 153 151 146 141 135 129 140 164 131 84 148 163 152 139 133 129
92 98 95 85 65 32 343 331 10 49 46 34 45 51 48 52 57 45 18 346 323 316 314 314 318 324 322 315 313 315 307 294 285 281 275 262 259 279 294 313 119 122 91 45 30 9 8 10 336 243 277 344 359 17 24 19 12 317 306 316 282 236 269 279 291 333 348 158 169 168 161 154 152 147 140 140 144 153 162 150 73 149 168 162 148 132 121
82 87 84 69 37 352 336 24 48 37 6 14 64 65 51 48 55 40 2 328 309 310 315 313 300 293 298 304 301 297 294 293 286 263 246 236 244 283 298 273 146 116 53 41 44 13 351 338 292 219 213 306 351 9 16 10 8 359 319 288 280 291 295 287 264 279 337 359 174 180 177 161 152 149 144 145 154 159 164 190 232 179 164 164 163 152 128
72 61 51 34 25 28 31 30 19 355 346 23 56 54 33 13 349 264 255 269 287 293 300 309 308 295 288 295 299 294 290 292 119 140 195 211 233 281 284 261 196 121 69 48 33 11 1 354 261 202 209 253 312 346 350 346 355 360 328 313 319 320 309 260 224 240 301 351 175 189 187 175 161 160 163 163 161 160 167 204 237 204 172 170 171 165 151
94 79 45 37 42 43 33 355 337 355 33 45 32 9 343 321 288 241 235 297 319 310 300 304 310 308 305 307 310 312 314 111 123 106 72 13 320 296 264 214 168 112 66 47 39 31 28 35 96 176 229 275 266 280 323 329 317 315 312 314 323 327 313 214 201 229 273 342 18 197 195 191 182 173 173 173 168 162 168 187 208 205 188 175 166 159 166
117 141 117 72 47 20 294 280 325 23 36 24 352 335 324 316 319 86 55 3 343 333 323 313 307 309 312 306 300 302 356 138 181 286 25 26 336 310 228 167 144 97 62 63 97 22 12 13 6 293 302 303 277 278 304 307 289 297 300 297 315 328 321 264 220 222 230 257 14 23 198 199 193 181 176 178 176 171 173 182 194 205 195 183 177 179 204
143 148 140 151 202 237 244 279 23 17 353 322 307 300 294 285 123 104 71 5 342 337 334 327 313 308 312 314 310 272 130 112 342 322 280 217 240 264 199 177 164 110 76 79 89 332 349 354 350 335 321 306 284 277 285 280 270 291 296 293 310 329 331 301 240 226 215 207 164 28 174 200 196 189 183 182 182 181 178 179 188 209 213 202 202 206 212
152 129 106 146 284 324 17 31 358 317 302 319 338 329 322 57 106 98 57 10 345 329 321 318 316 317 326 13 57 87 117 100 38 15 346 231 270 257 217 203 195 128 71 151 202 160 19 358 5 8 354 334 311 290 275 262 253 268 287 301 316 334 353 0 341 278 220 208 206 199 81 188 194 193 190 186 184 183 177 174 187 215 228 230 229 222 217
136 124 89 40 3 352 343 313 291 287 344 62 52 36 32 51 73 62 29 10 351 332 320 317 345 35 67 84 84 85 101 88 60 62 75 32 339 276 230 211 197 98 342 291 253 236 256 326 17 26 16 7 12 21 337 230 217 238 279 304 322 341 6 10 5 343 199 198 202 194 177 155 186 196 197 196 193 188 181 171 169 194 221 245 248 225 212
130 151 184 214 245 258 266 286 359 56 69 65 53 38 25 17 17 33 35 17 356 349 351 10 70 80 86 92 85 72 57 50 84 118 114 54 8 258 209 199 205 264 297 294 263 244 251 261 346 24 25 48 83 79 55 15 243 268 286 301 325 335 334 343 355 11 154 172 222 220 209 216 249 247 227 210 199 194 192 184 170 174 207 246 255 218 200
129 193 260 281 282 263 250 245 74 78 73 56 38 28 13 352 343 12 49 25 6 10 40 82 91 83 76 44 9 22 42 69 113 138 141 57 328 249 224 227 248 267 275 274 265 268 272 263 258 352 40 92 117 95 39 358 337 328 318 326 351 346 332 327 340 350 345 322 312 294 243 233 269 296 280 229 207 206 208 203 193 187 201 226 234 222 220
108 297 296 354 15 19 25 64 82 83 73 54 53 56 26 3 354 3 66 55 15 22 58 85 82 52 26 355 350 3 60 118 111 121 127 16 344 284 233 230 242 256 262 268 283 299 295 275 258 240 91 96 102 72 14 339 332 338 347 2 356 349 346 353 1 355 343 322 308 304 277 249 269 304 317 252 210 204 200 200 206 212 211 212 220 228 231
258 277 310 17 16 5 350 346 44 84 55 8 150 119 12 356 351 357 34 84 44 23 43 68 65 27 22 18 19 37 69 83 40 30 28 355 351 349 198 228 275 277 265 263 286 315 303 270 247 213 132 100 77 59 27 355 359 10 60 158 332 343 342 335 322 312 309 303 294 288 291 289 281 287 312 315 246 211 197 197 211 216 213 218 235 246 242